Flag for Germany Weather past 2 weeks in Burg, Saxony-Anhalt, Germany

Now
37 °F

Scattered clouds.


Feels Like: 33 °F
Forecast: 34 / 45 °F
Wind: 6 mph from Southwest

Location: Magdeburg

Current Time: Mar 4, 2015 at 10:40:43 AM

Latest Report: Mar 4, 2015 at 9:00 AM


Visibility: 28 mi

Pressure: 30.13 "Hg

Humidity: 76%

Dew point: 31 °F

Location of BurgLocation

Historic Weather in Burg — Graph

°F

Burg temperature yesterday

Maximum temperature yesterday: 46 °F (at 3:00 PM)
Minimum temperature yesterday: 36 °F (at 7:00 AM)
Average temperature yesterday: 41 °F

Past Weeks' High & Low Weather Summary

 TemperatureHumidityPressure
High49 °F (Feb 20, 4:00 PM)98% (Feb 18, 6:00 AM)30.76 "Hg (Feb 18, 6:00 AM)
Low26 °F (Feb 19, 7:00 AM)49% (Feb 26, 5:00 PM)29.38 "Hg (Feb 21, 11:00 AM)
Average38 °F78%29.94 "Hg
* Reported Feb 17 9:00 AM — Mar 4 9:00 AM, Burg, Weather by CustomWeather, © 2015

Note: Actual official high and low records may vary slightly from our data, if they occured in-between our weather recording intervals... More about our weather records

Advertising

Burg weather history for previous 24 hours

 ConditionsComfort  
Time TempWeatherWind HumidityBarometerVisibility
9:00 AM
Wed, Mar 4
37 °FScattered clouds.6 mph76%30.13 "Hg28 mi
8:00 AM36 °FSunny.5 mph79%30.11 "Hg28 mi
7:00 AM35 °FPassing clouds.5 mph81%30.09 "Hg25 mi
6:00 AM35 °FPassing clouds.5 mph83%30.08 "Hg16 mi
5:00 AM36 °FLow clouds.7 mph84%30.05 "Hg13 mi
3:00 AM35 °FClear.3 mph85%30.02 "Hg16 mi
2:00 AM36 °FPassing clouds.3 mph85%30.01 "Hg16 mi
1:00 AM37 °FPassing clouds.5 mph85%30.00 "Hg16 mi
12:00 AM36 °FPassing clouds.6 mph88%29.99 "Hg19 mi
11:00 PM
Tue, Mar 3
37 °FOvercast.6 mph86%29.96 "Hg31 mi
9:00 PM42 °FOvercast.5 mph81%29.93 "Hg37 mi
8:00 PM43 °FLight rain. Overcast.5 mph73%29.93 "Hg16 mi
7:00 PM43 °FOvercast.3 mph68%29.93 "Hg37 mi
6:00 PM44 °FOvercast.3 mph67%29.94 "Hg37 mi
5:00 PM46 °FLight rain. Overcast.7 mph58%29.95 "Hg9 mi
3:00 PM46 °FOvercast.5 mph57%30.00 "Hg37 mi
2:00 PM45 °FOvercast.6 mph58%30.02 "Hg37 mi
1:00 PM45 °FPartly sunny.6 mph61%30.04 "Hg37 mi
12:00 PM44 °FPartly sunny.7 mph61%30.03 "Hg28 mi
11:00 AM43 °FPartly sunny.8 mph63%30.03 "Hg28 mi
10:00 AM42 °FScattered clouds.7 mph68%30.03 "Hg28 mi
Weather by CustomWeather, © 2015

See weather overviewHow to use our weather pages